DHL852 EDDP-LKPR

Flight info

Callsign DHL852
Flight time 0h 32m
Altitude 21000
Route DRN2Q DRN T620 LALUK DCT GOLOP
Aircraft B77L/H-SDE1E2E3FGHIJ2J3J4J5M1RWXY/LB1D1

Departure

Time 2026-05-05 20:41
Airport Leipzig/Halle Airport (EDDP)

Arrival

Time 2026-05-05 21:13
Airport Václav Havel Airport Prague (LKPR)
Time Latitude Longitude Altitude Speed Heading
2026-05-05 20:09 51.40792 12.24535 468 ft 0 kts 266°
2026-05-05 20:24 51.40793 12.24558 462 ft 2 kts 268°
2026-05-05 20:25 51.40794 12.24585 460 ft 2 kts 269°
2026-05-05 20:25 51.40794 12.24611 459 ft 2 kts 271°
2026-05-05 20:25 51.40793 12.24637 461 ft 2 kts 276°
2026-05-05 20:25 51.40790 12.24663 461 ft 2 kts 292°
2026-05-05 20:26 51.40780 12.24681 461 ft 2 kts 358°
2026-05-05 20:26 51.40764 12.24682 463 ft 2 kts 358°
2026-05-05 20:26 51.40762 12.24682 463 ft 0 kts 357°
2026-05-05 20:28 51.40788 12.24680 454 ft 10 kts 356°
2026-05-05 20:28 51.40878 12.24670 470 ft 13 kts 356°
2026-05-05 20:28 51.40971 12.24660 468 ft 13 kts 356°
2026-05-05 20:29 51.41063 12.24642 471 ft 13 kts 338°
2026-05-05 20:29 51.41091 12.24613 467 ft 1 kts 330°
2026-05-05 20:29 51.41095 12.24601 468 ft 1 kts 296°
2026-05-05 20:29 51.41094 12.24580 467 ft 3 kts 264°
2026-05-05 20:30 51.41091 12.24531 471 ft 6 kts 264°
2026-05-05 20:30 51.41087 12.24457 465 ft 7 kts 266°
2026-05-05 20:30 51.41083 12.24367 470 ft 9 kts 265°
2026-05-05 20:30 51.41078 12.24267 470 ft 9 kts 265°
2026-05-05 20:31 51.41073 12.24164 465 ft 9 kts 265°
2026-05-05 20:31 51.41068 12.24059 470 ft 10 kts 266°
2026-05-05 20:31 51.41063 12.23946 467 ft 10 kts 266°
2026-05-05 20:31 51.41058 12.23832 471 ft 10 kts 266°
2026-05-05 20:32 51.41053 12.23716 475 ft 10 kts 266°
2026-05-05 20:32 51.41047 12.23599 472 ft 11 kts 266°
2026-05-05 20:32 51.41041 12.23465 472 ft 13 kts 266°
2026-05-05 20:32 51.41035 12.23321 470 ft 13 kts 265°
2026-05-05 20:33 51.41028 12.23174 469 ft 14 kts 265°
2026-05-05 20:33 51.41019 12.23000 469 ft 18 kts 265°
2026-05-05 20:33 51.41009 12.22794 467 ft 19 kts 265°
2026-05-05 20:33 51.40999 12.22577 464 ft 21 kts 265°
2026-05-05 20:34 51.41000 12.22355 462 ft 16 kts 299°
2026-05-05 20:34 51.41067 12.22230 461 ft 16 kts 279°
2026-05-05 20:34 51.41063 12.22083 461 ft 11 kts 264°
2026-05-05 20:34 51.41056 12.21957 461 ft 12 kts 266°
2026-05-05 20:35 51.41051 12.21828 462 ft 12 kts 266°
2026-05-05 20:35 51.41045 12.21698 463 ft 12 kts 266°
2026-05-05 20:35 51.41039 12.21549 421 ft 15 kts 266°
2026-05-05 20:35 51.41031 12.21364 456 ft 17 kts 266°
2026-05-05 20:36 51.41022 12.21164 453 ft 19 kts 266°
2026-05-05 20:36 51.41010 12.20922 444 ft 23 kts 265°
2026-05-05 20:36 51.40998 12.20665 433 ft 21 kts 265°
2026-05-05 20:36 51.41009 12.20501 432 ft 11 kts 310°
2026-05-05 20:37 51.41016 12.20492 426 ft 0 kts 324°
2026-05-05 20:38 51.41026 12.20487 428 ft 6 kts 344°
2026-05-05 20:38 51.41132 12.20526 440 ft 25 kts 31°
2026-05-05 20:38 51.41170 12.20650 433 ft 0 kts 86°
2026-05-05 20:39 51.41170 12.20652 433 ft 1 kts 86°
2026-05-05 20:40 51.41177 12.20814 433 ft 33 kts 86°
2026-05-05 20:40 51.41214 12.21589 458 ft 107 kts 86°
2026-05-05 20:40 51.41286 12.23123 466 ft 166 kts 86°
2026-05-05 20:40 51.41360 12.25070 983 ft 169 kts 84°
2026-05-05 20:41 51.41432 12.26859 1963 ft 162 kts 84°
2026-05-05 20:41 51.41522 12.28754 2507 ft 178 kts 85°
2026-05-05 20:41 51.41623 12.30861 2772 ft 209 kts 85°
2026-05-05 20:41 51.41742 12.33386 3035 ft 242 kts 86°
2026-05-05 20:42 51.41872 12.36151 3791 ft 253 kts 86°
2026-05-05 20:42 51.42003 12.38953 4661 ft 260 kts 87°
2026-05-05 20:42 51.42141 12.41935 5593 ft 265 kts 87°
2026-05-05 20:42 51.42280 12.44930 6447 ft 273 kts 87°
2026-05-05 20:43 51.42419 12.47976 7360 ft 276 kts 88°
2026-05-05 20:43 51.42559 12.51061 8302 ft 279 kts 87°
2026-05-05 20:43 51.42700 12.54183 9174 ft 283 kts 88°
2026-05-05 20:43 51.42482 12.57303 9835 ft 287 kts 113°
2026-05-05 20:44 51.41508 12.60147 10297 ft 301 kts 124°
2026-05-05 20:44 51.40325 12.63116 10504 ft 331 kts 124°
2026-05-05 20:44 51.39474 12.65224 10657 ft 349 kts 124°
2026-05-05 20:44 51.38119 12.68579 11058 ft 372 kts 124°
2026-05-05 20:45 51.35236 12.75763 12706 ft 391 kts 124°
2026-05-05 20:45 51.33763 12.79454 13714 ft 396 kts 124°
2026-05-05 20:45 51.32270 12.83194 14600 ft 402 kts 124°
2026-05-05 20:46 51.30758 12.86984 15485 ft 406 kts 125°
2026-05-05 20:46 51.29230 12.90809 16372 ft 411 kts 125°
2026-05-05 20:46 51.27680 12.94688 17242 ft 416 kts 125°
2026-05-05 20:46 51.26113 12.98600 18060 ft 422 kts 124°
2026-05-05 20:47 51.24518 13.02574 18785 ft 427 kts 125°
2026-05-05 20:47 51.22908 13.06583 19491 ft 432 kts 125°
2026-05-05 20:47 51.21272 13.10651 20208 ft 437 kts 125°
2026-05-05 20:47 51.19620 13.14753 20794 ft 444 kts 125°
2026-05-05 20:48 51.17955 13.18881 20802 ft 442 kts 125°
2026-05-05 20:48 51.16293 13.23001 20825 ft 443 kts 125°
2026-05-05 20:48 51.14639 13.27145 20804 ft 444 kts 124°
2026-05-05 20:48 51.13008 13.31252 20802 ft 444 kts 124°
2026-05-05 20:49 51.11359 13.35404 20815 ft 443 kts 124°
2026-05-05 20:49 51.09708 13.39549 20785 ft 443 kts 125°
2026-05-05 20:49 51.08053 13.43692 20805 ft 444 kts 125°
2026-05-05 20:49 51.06395 13.47835 20812 ft 444 kts 125°
2026-05-05 20:50 51.04734 13.51980 20812 ft 444 kts 125°
2026-05-05 20:50 51.03075 13.56107 20784 ft 445 kts 125°
2026-05-05 20:50 51.01206 13.59956 20800 ft 438 kts 139°
2026-05-05 20:50 50.98747 13.62693 20798 ft 427 kts 154°
2026-05-05 20:51 50.96099 13.64855 20813 ft 430 kts 154°
2026-05-05 20:51 50.93472 13.67147 20807 ft 433 kts 152°
2026-05-05 20:51 50.90944 13.69781 20783 ft 437 kts 145°
2026-05-05 20:51 50.88622 13.72877 20804 ft 436 kts 140°
2026-05-05 20:52 50.86518 13.76216 20776 ft 419 kts 134°
2026-05-05 20:52 50.84705 13.79720 20783 ft 404 kts 131°
2026-05-05 20:52 50.82961 13.83150 20780 ft 398 kts 132°
2026-05-05 20:52 50.81222 13.86554 20800 ft 398 kts 130°
2026-05-05 20:53 50.79638 13.90159 20799 ft 401 kts 124°
2026-05-05 20:53 50.78264 13.94010 20794 ft 403 kts 122°
2026-05-05 20:53 50.76916 13.97891 20792 ft 403 kts 122°
2026-05-05 20:53 50.75733 14.01297 20793 ft 403 kts 122°
2026-05-05 20:54 50.74396 14.05127 20796 ft 403 kts 122°
2026-05-05 20:54 50.73019 14.09047 20780 ft 403 kts 122°
2026-05-05 20:54 50.71662 14.12895 20771 ft 396 kts 122°
2026-05-05 20:54 50.70339 14.16637 20749 ft 384 kts 122°
2026-05-05 20:55 50.69073 14.20210 20745 ft 372 kts 122°
2026-05-05 20:55 50.67823 14.23727 20534 ft 366 kts 123°
2026-05-05 20:55 50.66585 14.27199 20214 ft 361 kts 123°
2026-05-05 20:55 50.65362 14.30627 19858 ft 357 kts 123°
2026-05-05 20:56 50.64146 14.34032 19464 ft 354 kts 123°
2026-05-05 20:56 50.62942 14.37399 19067 ft 352 kts 123°
2026-05-05 20:56 50.61741 14.40752 18668 ft 350 kts 123°
2026-05-05 20:56 50.60471 14.43963 18260 ft 340 kts 134°
2026-05-05 20:57 50.58664 14.46250 17860 ft 330 kts 156°
2026-05-05 20:57 50.56510 14.47341 17444 ft 324 kts 172°
2026-05-05 20:57 50.54275 14.47495 17011 ft 320 kts 187°
2026-05-05 20:57 50.52126 14.46716 16619 ft 316 kts 196°
2026-05-05 20:58 50.50028 14.45708 16228 ft 313 kts 197°
2026-05-05 20:58 50.47959 14.44678 15832 ft 311 kts 197°
2026-05-05 20:58 50.45908 14.43662 15457 ft 308 kts 197°
2026-05-05 20:58 50.43856 14.42659 15078 ft 309 kts 197°
2026-05-05 20:59 50.41789 14.41662 14709 ft 313 kts 197°
2026-05-05 20:59 50.39692 14.40660 14318 ft 318 kts 197°
2026-05-05 20:59 50.37562 14.39649 13928 ft 320 kts 197°
2026-05-05 20:59 50.35434 14.38644 13527 ft 318 kts 197°
2026-05-05 21:00 50.33322 14.37650 13079 ft 315 kts 197°
2026-05-05 21:00 50.31234 14.36674 12683 ft 311 kts 197°
2026-05-05 21:00 50.29171 14.35705 12291 ft 307 kts 197°
2026-05-05 21:00 50.27136 14.34749 11893 ft 304 kts 197°
2026-05-05 21:01 50.25124 14.33807 11509 ft 300 kts 197°
2026-05-05 21:01 50.23139 14.32878 11139 ft 296 kts 197°
2026-05-05 21:01 50.21178 14.31961 10782 ft 292 kts 197°
2026-05-05 21:01 50.19271 14.31071 10441 ft 288 kts 197°
2026-05-05 21:02 50.17388 14.30193 10363 ft 275 kts 197°
2026-05-05 21:02 50.15603 14.29362 10272 ft 262 kts 197°
2026-05-05 21:02 50.13897 14.28568 10179 ft 249 kts 197°
2026-05-05 21:02 50.12277 14.27815 10085 ft 237 kts 197°
2026-05-05 21:03 50.10682 14.27529 9980 ft 237 kts 173°
2026-05-05 21:03 50.09054 14.28431 9768 ft 261 kts 153°
2026-05-05 21:03 50.07674 14.30317 9443 ft 269 kts 133°
2026-05-05 21:03 50.06561 14.32673 9141 ft 271 kts 129°
2026-05-05 21:04 50.05485 14.35090 8835 ft 272 kts 129°
2026-05-05 21:04 50.04387 14.37502 8516 ft 273 kts 130°
2026-05-05 21:04 50.03274 14.39891 8213 ft 270 kts 130°
2026-05-05 21:04 50.02174 14.42231 7866 ft 265 kts 130°
2026-05-05 21:05 50.01067 14.44477 7560 ft 256 kts 139°
2026-05-05 21:05 49.99685 14.45863 7304 ft 249 kts 163°
2026-05-05 21:05 49.97992 14.46431 7046 ft 251 kts 173°
2026-05-05 21:05 49.96248 14.46858 6768 ft 255 kts 173°
2026-05-05 21:06 49.94498 14.47298 6602 ft 251 kts 173°
2026-05-05 21:06 49.92782 14.47823 6273 ft 250 kts 162°
2026-05-05 21:06 49.91415 14.49484 5934 ft 260 kts 124°
2026-05-05 21:06 49.90926 14.52182 5664 ft 267 kts 93°
2026-05-05 21:07 49.91381 14.54977 5404 ft 270 kts 62°
2026-05-05 21:07 49.92646 14.57039 5260 ft 262 kts 32°
2026-05-05 21:07 49.94309 14.57796 5165 ft 241 kts 359°
2026-05-05 21:07 49.95814 14.57133 5037 ft 215 kts 322°
2026-05-05 21:08 49.96672 14.55452 4974 ft 190 kts 288°
2026-05-05 21:08 49.97207 14.53554 4974 ft 197 kts 293°
2026-05-05 21:08 49.97877 14.51687 4733 ft 195 kts 296°
2026-05-05 21:08 49.98570 14.49906 4489 ft 191 kts 300°
2026-05-05 21:09 49.99318 14.48233 4263 ft 182 kts 303°
2026-05-05 21:09 50.00035 14.46730 4065 ft 170 kts 303°
2026-05-05 21:09 50.00752 14.45249 3907 ft 171 kts 304°
2026-05-05 21:09 50.01463 14.43784 3682 ft 170 kts 304°
2026-05-05 21:10 50.02172 14.42325 3467 ft 169 kts 305°
2026-05-05 21:10 50.02869 14.40887 3293 ft 168 kts 305°
2026-05-05 21:10 50.03575 14.39439 3106 ft 168 kts 306°
2026-05-05 21:10 50.04277 14.37990 2874 ft 169 kts 307°
2026-05-05 21:11 50.05001 14.36504 2633 ft 168 kts 308°
2026-05-05 21:11 50.05699 14.35066 2453 ft 170 kts 307°
2026-05-05 21:11 50.06402 14.33609 2190 ft 164 kts 309°
2026-05-05 21:11 50.07080 14.32220 1979 ft 155 kts 307°
2026-05-05 21:12 50.07698 14.30944 1757 ft 144 kts 306°
2026-05-05 21:12 50.08304 14.29698 1567 ft 146 kts 304°
2026-05-05 21:12 50.08921 14.28425 1350 ft 145 kts 304°
2026-05-05 21:12 50.09497 14.27238 1221 ft 127 kts 305°
2026-05-05 21:13 50.09953 14.26286 1199 ft 92 kts 307°
2026-05-05 21:13 50.10264 14.25646 1189 ft 56 kts 307°
2026-05-05 21:13 50.10475 14.25210 1173 ft 47 kts 307°
2026-05-05 21:13 50.10651 14.24849 1175 ft 35 kts 307°
2026-05-05 21:14 50.10752 14.24644 1179 ft 11 kts 316°
2026-05-05 21:14 50.10803 14.24702 1175 ft 12 kts 73°
2026-05-05 21:14 50.10818 14.24854 1174 ft 16 kts 84°
2026-05-05 21:14 50.10817 14.25026 1176 ft 16 kts 94°
2026-05-05 21:15 50.10793 14.25203 1175 ft 19 kts 111°
2026-05-05 21:15 50.10728 14.25392 1175 ft 20 kts 119°
2026-05-05 21:15 50.10660 14.25583 1176 ft 20 kts 119°
2026-05-05 21:15 50.10590 14.25770 1187 ft 20 kts 122°
2026-05-05 21:16 50.10534 14.25925 1191 ft 14 kts 96°
2026-05-05 21:16 50.10597 14.26034 1189 ft 16 kts 32°
2026-05-05 21:16 50.10700 14.26144 1179 ft 19 kts 35°
2026-05-05 21:16 50.10820 14.26271 1173 ft 22 kts 34°
2026-05-05 21:17 50.10918 14.26372 1174 ft 16 kts 32°
2026-05-05 21:17 50.11011 14.26470 1171 ft 17 kts 36°
2026-05-05 21:17 50.11050 14.26566 1173 ft 10 kts 96°
2026-05-05 21:17 50.11000 14.26596 1174 ft 8 kts 209°
2026-05-05 21:18 50.10972 14.26549 1173 ft 4 kts 217°
2026-05-05 21:18 50.10959 14.26534 1172 ft 0 kts 218°